Date_Time,Julian_Date,Latitude,Longitude,Instrument_Depth,Water_Temperature
(yyyy-mm-dd hh:mn:ss UTC),(JD),(+ deg. North),(+ deg. East),(m),(deg. C)
1982-02-01 00:00:00 UTC,2445001.500000,28.7944,-95.3222,0180,14.1000
1982-02-01 01:00:00 UTC,2445001.541667,28.7944,-95.3222,0180,14.0000
1982-02-01 02:00:00 UTC,2445001.583333,28.7944,-95.3222,0180,14.1000
1982-02-01 03:00:00 UTC,2445001.625000,28.7944,-95.3222,0180,14.3000
1982-02-01 04:00:00 UTC,2445001.666667,28.7944,-95.3222,0180,14.3000
1982-02-01 05:00:00 UTC,2445001.708333,28.7944,-95.3222,0180,14.3000
1982-02-01 06:00:00 UTC,2445001.750000,28.7944,-95.3222,0180,14.3000
1982-02-01 07:00:00 UTC,2445001.791667,28.7944,-95.3222,0180,14.3000
1982-02-01 08:00:00 UTC,2445001.833333,28.7944,-95.3222,0180,14.3000
1982-02-01 09:00:00 UTC,2445001.875000,28.7944,-95.3222,0180,14.2000
1982-02-01 10:00:00 UTC,2445001.916667,28.7944,-95.3222,0180,14.2000
1982-02-01 11:00:00 UTC,2445001.958333,28.7944,-95.3222,0180,14.2000
1982-02-01 12:00:00 UTC,2445002.000000,28.7944,-95.3222,0180,14.1000
1982-02-01 13:00:00 UTC,2445002.041667,28.7944,-95.3222,0180,14.1000
1982-02-01 14:00:00 UTC,2445002.083333,28.7944,-95.3222,0180,14.1000
1982-02-01 15:00:00 UTC,2445002.125000,28.7944,-95.3222,0180,14.2000
1982-02-01 16:00:00 UTC,2445002.166667,28.7944,-95.3222,0180,14.2000
1982-02-01 17:00:00 UTC,2445002.208333,28.7944,-95.3222,0180,14.2000
1982-02-01 18:00:00 UTC,2445002.250000,28.7944,-95.3222,0180,14.2000
1982-02-01 19:00:00 UTC,2445002.291667,28.7944,-95.3222,0180,14.2000
1982-02-01 20:00:00 UTC,2445002.333333,28.7944,-95.3222,0180,14.2000
1982-02-01 21:00:00 UTC,2445002.375000,28.7944,-95.3222,0180,14.2000
1982-02-01 22:00:00 UTC,2445002.416667,28.7944,-95.3222,0180,14.2000
1982-02-01 23:00:00 UTC,2445002.458333,28.7944,-95.3222,0180,14.2000
1982-02-02 00:00:00 UTC,2445002.500000,28.7944,-95.3222,0180,14.1000
1982-02-02 01:00:00 UTC,2445002.541667,28.7944,-95.3222,0180,14.0000
1982-02-02 02:00:00 UTC,2445002.583333,28.7944,-95.3222,0180,14.0000
1982-02-02 03:00:00 UTC,2445002.625000,28.7944,-95.3222,0180,13.9000
1982-02-02 04:00:00 UTC,2445002.666667,28.7944,-95.3222,0180,13.9000
1982-02-02 05:00:00 UTC,2445002.708333,28.7944,-95.3222,0180,13.9000
1982-02-02 06:00:00 UTC,2445002.750000,28.7944,-95.3222,0180,13.6000
1982-02-02 07:00:00 UTC,2445002.791667,28.7944,-95.3222,0180,13.3000
1982-02-02 08:00:00 UTC,2445002.833333,28.7944,-95.3222,0180,13.2000
1982-02-02 09:00:00 UTC,2445002.875000,28.7944,-95.3222,0180,13.2000
1982-02-02 10:00:00 UTC,2445002.916667,28.7944,-95.3222,0180,13.2000
1982-02-02 11:00:00 UTC,2445002.958333,28.7944,-95.3222,0180,13.2000
1982-02-02 12:00:00 UTC,2445003.000000,28.7944,-95.3222,0180,13.1000
1982-02-02 13:00:00 UTC,2445003.041667,28.7944,-95.3222,0180,13.1000
1982-02-02 14:00:00 UTC,2445003.083333,28.7944,-95.3222,0180,13.1000
1982-02-02 15:00:00 UTC,2445003.125000,28.7944,-95.3222,0180,13.1000
1982-02-02 16:00:00 UTC,2445003.166667,28.7944,-95.3222,0180,13.1000
1982-02-02 17:00:00 UTC,2445003.208333,28.7944,-95.3222,0180,13.1000
1982-02-02 18:00:00 UTC,2445003.250000,28.7944,-95.3222,0180,13.2000
1982-02-02 19:00:00 UTC,2445003.291667,28.7944,-95.3222,0180,13.3000
1982-02-02 20:00:00 UTC,2445003.333333,28.7944,-95.3222,0180,13.3000
1982-02-02 21:00:00 UTC,2445003.375000,28.7944,-95.3222,0180,13.3000
1982-02-02 22:00:00 UTC,2445003.416667,28.7944,-95.3222,0180,13.0000
1982-02-02 23:00:00 UTC,2445003.458333,28.7944,-95.3222,0180,13.0000
1982-02-03 00:00:00 UTC,2445003.500000,28.7944,-95.3222,0180,13.0000
1982-02-03 01:00:00 UTC,2445003.541667,28.7944,-95.3222,0180,13.0000
1982-02-03 02:00:00 UTC,2445003.583333,28.7944,-95.3222,0180,12.9000
1982-02-03 03:00:00 UTC,2445003.625000,28.7944,-95.3222,0180,12.9000
1982-02-03 04:00:00 UTC,2445003.666667,28.7944,-95.3222,0180,12.9000
1982-02-03 05:00:00 UTC,2445003.708333,28.7944,-95.3222,0180,12.9000
1982-02-03 06:00:00 UTC,2445003.750000,28.7944,-95.3222,0180,13.0000
1982-02-03 07:00:00 UTC,2445003.791667,28.7944,-95.3222,0180,13.1000
1982-02-03 08:00:00 UTC,2445003.833333,28.7944,-95.3222,0180,13.1000
1982-02-03 09:00:00 UTC,2445003.875000,28.7944,-95.3222,0180,13.5000
1982-02-03 10:00:00 UTC,2445003.916667,28.7944,-95.3222,0180,13.5000
1982-02-03 11:00:00 UTC,2445003.958333,28.7944,-95.3222,0180,13.5000
1982-02-03 12:00:00 UTC,2445004.000000,28.7944,-95.3222,0180,13.5000
1982-02-03 13:00:00 UTC,2445004.041667,28.7944,-95.3222,0180,13.5000
1982-02-03 14:00:00 UTC,2445004.083333,28.7944,-95.3222,0180,13.6000
1982-02-03 15:00:00 UTC,2445004.125000,28.7944,-95.3222,0180,13.6000
1982-02-03 16:00:00 UTC,2445004.166667,28.7944,-95.3222,0180,13.5000
1982-02-03 17:00:00 UTC,2445004.208333,28.7944,-95.3222,0180,13.5000
1982-02-03 18:00:00 UTC,2445004.250000,28.7944,-95.3222,0180,13.5000
1982-02-03 19:00:00 UTC,2445004.291667,28.7944,-95.3222,0180,13.5000
1982-02-03 20:00:00 UTC,2445004.333333,28.7944,-95.3222,0180,13.5000
1982-02-03 21:00:00 UTC,2445004.375000,28.7944,-95.3222,0180,13.5000
1982-02-03 22:00:00 UTC,2445004.416667,28.7944,-95.3222,0180,13.5000
1982-02-03 23:00:00 UTC,2445004.458333,28.7944,-95.3222,0180,13.5000
1982-02-04 00:00:00 UTC,2445004.500000,28.7944,-95.3222,0180,13.5000
1982-02-04 01:00:00 UTC,2445004.541667,28.7944,-95.3222,0180,13.5000
1982-02-04 02:00:00 UTC,2445004.583333,28.7944,-95.3222,0180,13.4000
1982-02-04 03:00:00 UTC,2445004.625000,28.7944,-95.3222,0180,13.4000
1982-02-04 04:00:00 UTC,2445004.666667,28.7944,-95.3222,0180,13.4000
1982-02-04 05:00:00 UTC,2445004.708333,28.7944,-95.3222,0180,13.4000
1982-02-04 06:00:00 UTC,2445004.750000,28.7944,-95.3222,0180,13.4000
1982-02-04 07:00:00 UTC,2445004.791667,28.7944,-95.3222,0180,13.4000
1982-02-04 08:00:00 UTC,2445004.833333,28.7944,-95.3222,0180,13.4000
1982-02-04 09:00:00 UTC,2445004.875000,28.7944,-95.3222,0180,13.4000
1982-02-04 10:00:00 UTC,2445004.916667,28.7944,-95.3222,0180,13.3000
1982-02-04 11:00:00 UTC,2445004.958333,28.7944,-95.3222,0180,13.4000
1982-02-04 12:00:00 UTC,2445005.000000,28.7944,-95.3222,0180,13.4000
1982-02-04 13:00:00 UTC,2445005.041667,28.7944,-95.3222,0180,13.4000
1982-02-04 14:00:00 UTC,2445005.083333,28.7944,-95.3222,0180,13.2000
1982-02-04 15:00:00 UTC,2445005.125000,28.7944,-95.3222,0180,13.1000
1982-02-04 16:00:00 UTC,2445005.166667,28.7944,-95.3222,0180,13.0000
1982-02-04 17:00:00 UTC,2445005.208333,28.7944,-95.3222,0180,13.0000
1982-02-04 18:00:00 UTC,2445005.250000,28.7944,-95.3222,0180,13.0000
1982-02-04 19:00:00 UTC,2445005.291667,28.7944,-95.3222,0180,12.9000
1982-02-04 20:00:00 UTC,2445005.333333,28.7944,-95.3222,0180,12.9000
1982-02-04 21:00:00 UTC,2445005.375000,28.7944,-95.3222,0180,12.9000
1982-02-04 22:00:00 UTC,2445005.416667,28.7944,-95.3222,0180,12.9000
1982-02-04 23:00:00 UTC,2445005.458333,28.7944,-95.3222,0180,12.9000
1982-02-05 00:00:00 UTC,2445005.500000,28.7944,-95.3222,0180,12.8000
1982-02-05 01:00:00 UTC,2445005.541667,28.7944,-95.3222,0180,12.9000
1982-02-05 02:00:00 UTC,2445005.583333,28.7944,-95.3222,0180,12.8000
1982-02-05 03:00:00 UTC,2445005.625000,28.7944,-95.3222,0180,12.8000
1982-02-05 04:00:00 UTC,2445005.666667,28.7944,-95.3222,0180,12.8000
1982-02-05 05:00:00 UTC,2445005.708333,28.7944,-95.3222,0180,12.8000
1982-02-05 06:00:00 UTC,2445005.750000,28.7944,-95.3222,0180,12.8000
1982-02-05 07:00:00 UTC,2445005.791667,28.7944,-95.3222,0180,12.8000
1982-02-05 08:00:00 UTC,2445005.833333,28.7944,-95.3222,0180,12.8000
1982-02-05 09:00:00 UTC,2445005.875000,28.7944,-95.3222,0180,12.8000
1982-02-05 10:00:00 UTC,2445005.916667,28.7944,-95.3222,0180,12.7000
1982-02-05 11:00:00 UTC,2445005.958333,28.7944,-95.3222,0180,12.7000
1982-02-05 12:00:00 UTC,2445006.000000,28.7944,-95.3222,0180,12.7000
1982-02-05 13:00:00 UTC,2445006.041667,28.7944,-95.3222,0180,12.7000
1982-02-05 14:00:00 UTC,2445006.083333,28.7944,-95.3222,0180,12.7000
1982-02-05 15:00:00 UTC,2445006.125000,28.7944,-95.3222,0180,12.6000
1982-02-05 16:00:00 UTC,2445006.166667,28.7944,-95.3222,0180,12.5000
1982-02-05 17:00:00 UTC,2445006.208333,28.7944,-95.3222,0180,12.5000
1982-02-05 18:00:00 UTC,2445006.250000,28.7944,-95.3222,0180,12.5000
1982-02-05 19:00:00 UTC,2445006.291667,28.7944,-95.3222,0180,12.4000
1982-02-05 20:00:00 UTC,2445006.333333,28.7944,-95.3222,0180,12.4000
1982-02-05 21:00:00 UTC,2445006.375000,28.7944,-95.3222,0180,12.4000
1982-02-05 22:00:00 UTC,2445006.416667,28.7944,-95.3222,0180,12.4000
1982-02-05 23:00:00 UTC,2445006.458333,28.7944,-95.3222,0180,12.4000
1982-02-06 00:00:00 UTC,2445006.500000,28.7944,-95.3222,0180,12.3000
1982-02-06 01:00:00 UTC,2445006.541667,28.7944,-95.3222,0180,12.2000
1982-02-06 02:00:00 UTC,2445006.583333,28.7944,-95.3222,0180,12.2000
1982-02-06 03:00:00 UTC,2445006.625000,28.7944,-95.3222,0180,12.2000
1982-02-06 04:00:00 UTC,2445006.666667,28.7944,-95.3222,0180,12.2000
1982-02-06 05:00:00 UTC,2445006.708333,28.7944,-95.3222,0180,12.2000
1982-02-06 06:00:00 UTC,2445006.750000,28.7944,-95.3222,0180,12.1000
1982-02-06 07:00:00 UTC,2445006.791667,28.7944,-95.3222,0180,12.1000
1982-02-06 08:00:00 UTC,2445006.833333,28.7944,-95.3222,0180,12.1000
1982-02-06 09:00:00 UTC,2445006.875000,28.7944,-95.3222,0180,12.1000
1982-02-06 10:00:00 UTC,2445006.916667,28.7944,-95.3222,0180,12.1000
1982-02-06 11:00:00 UTC,2445006.958333,28.7944,-95.3222,0180,11.9000
1982-02-06 12:00:00 UTC,2445007.000000,28.7944,-95.3222,0180,12.1000
1982-02-06 13:00:00 UTC,2445007.041667,28.7944,-95.3222,0180,12.1000
1982-02-06 14:00:00 UTC,2445007.083333,28.7944,-95.3222,0180,12.1000
1982-02-06 15:00:00 UTC,2445007.125000,28.7944,-95.3222,0180,12.2000
1982-02-06 16:00:00 UTC,2445007.166667,28.7944,-95.3222,0180,12.2000
1982-02-06 17:00:00 UTC,2445007.208333,28.7944,-95.3222,0180,12.2000
1982-02-06 18:00:00 UTC,2445007.250000,28.7944,-95.3222,0180,12.2000
1982-02-06 19:00:00 UTC,2445007.291667,28.7944,-95.3222,0180,12.2000
1982-02-06 20:00:00 UTC,2445007.333333,28.7944,-95.3222,0180,12.3000
1982-02-06 21:00:00 UTC,2445007.375000,28.7944,-95.3222,0180,12.3000
1982-02-06 22:00:00 UTC,2445007.416667,28.7944,-95.3222,0180,12.4000
1982-02-06 23:00:00 UTC,2445007.458333,28.7944,-95.3222,0180,12.4000
1982-02-07 00:00:00 UTC,2445007.500000,28.7944,-95.3222,0180,12.5000
1982-02-07 01:00:00 UTC,2445007.541667,28.7944,-95.3222,0180,12.5000
1982-02-07 02:00:00 UTC,2445007.583333,28.7944,-95.3222,0180,12.5000
1982-02-07 03:00:00 UTC,2445007.625000,28.7944,-95.3222,0180,12.5000
1982-02-07 04:00:00 UTC,2445007.666667,28.7944,-95.3222,0180,12.5000
1982-02-07 05:00:00 UTC,2445007.708333,28.7944,-95.3222,0180,12.4000
1982-02-07 06:00:00 UTC,2445007.750000,28.7944,-95.3222,0180,12.4000
1982-02-07 07:00:00 UTC,2445007.791667,28.7944,-95.3222,0180,12.4000
1982-02-07 08:00:00 UTC,2445007.833333,28.7944,-95.3222,0180,12.4000
1982-02-07 09:00:00 UTC,2445007.875000,28.7944,-95.3222,0180,12.4000
1982-02-07 10:00:00 UTC,2445007.916667,28.7944,-95.3222,0180,12.4000
1982-02-07 11:00:00 UTC,2445007.958333,28.7944,-95.3222,0180,12.4000
1982-02-07 12:00:00 UTC,2445008.000000,28.7944,-95.3222,0180,12.4000
1982-02-07 13:00:00 UTC,2445008.041667,28.7944,-95.3222,0180,12.4000
1982-02-07 14:00:00 UTC,2445008.083333,28.7944,-95.3222,0180,12.4000
1982-02-07 15:00:00 UTC,2445008.125000,28.7944,-95.3222,0180,12.4000
1982-02-07 16:00:00 UTC,2445008.166667,28.7944,-95.3222,0180,12.4000
1982-02-07 17:00:00 UTC,2445008.208333,28.7944,-95.3222,0180,12.4000
1982-02-07 18:00:00 UTC,2445008.250000,28.7944,-95.3222,0180,12.5000
1982-02-07 19:00:00 UTC,2445008.291667,28.7944,-95.3222,0180,12.5000
1982-02-07 20:00:00 UTC,2445008.333333,28.7944,-95.3222,0180,12.5000
1982-02-07 21:00:00 UTC,2445008.375000,28.7944,-95.3222,0180,12.5000
1982-02-07 22:00:00 UTC,2445008.416667,28.7944,-95.3222,0180,12.5000
1982-02-07 23:00:00 UTC,2445008.458333,28.7944,-95.3222,0180,12.5000
1982-02-08 00:00:00 UTC,2445008.500000,28.7944,-95.3222,0180,12.5000
1982-02-08 01:00:00 UTC,2445008.541667,28.7944,-95.3222,0180,12.5000
1982-02-08 02:00:00 UTC,2445008.583333,28.7944,-95.3222,0180,12.5000
1982-02-08 03:00:00 UTC,2445008.625000,28.7944,-95.3222,0180,12.5000
1982-02-08 04:00:00 UTC,2445008.666667,28.7944,-95.3222,0180,12.6000
1982-02-08 05:00:00 UTC,2445008.708333,28.7944,-95.3222,0180,12.6000
1982-02-08 06:00:00 UTC,2445008.750000,28.7944,-95.3222,0180,12.6000
1982-02-08 07:00:00 UTC,2445008.791667,28.7944,-95.3222,0180,12.6000
1982-02-08 08:00:00 UTC,2445008.833333,28.7944,-95.3222,0180,12.6000
1982-02-08 09:00:00 UTC,2445008.875000,28.7944,-95.3222,0180,12.6000
1982-02-08 10:00:00 UTC,2445008.916667,28.7944,-95.3222,0180,12.6000
1982-02-08 11:00:00 UTC,2445008.958333,28.7944,-95.3222,0180,12.5000
1982-02-08 12:00:00 UTC,2445009.000000,28.7944,-95.3222,0180,12.5000
1982-02-08 13:00:00 UTC,2445009.041667,28.7944,-95.3222,0180,12.3000
1982-02-08 14:00:00 UTC,2445009.083333,28.7944,-95.3222,0180,11.7000
1982-02-08 15:00:00 UTC,2445009.125000,28.7944,-95.3222,0180,11.8000
1982-02-08 16:00:00 UTC,2445009.166667,28.7944,-95.3222,0180,11.8000
1982-02-08 17:00:00 UTC,2445009.208333,28.7944,-95.3222,0180,11.8000
1982-02-08 18:00:00 UTC,2445009.250000,28.7944,-95.3222,0180,11.8000
1982-02-08 19:00:00 UTC,2445009.291667,28.7944,-95.3222,0180,11.8000
1982-02-08 20:00:00 UTC,2445009.333333,28.7944,-95.3222,0180,11.7000
1982-02-08 21:00:00 UTC,2445009.375000,28.7944,-95.3222,0180,11.6000
1982-02-08 22:00:00 UTC,2445009.416667,28.7944,-95.3222,0180,11.7000
1982-02-08 23:00:00 UTC,2445009.458333,28.7944,-95.3222,0180,11.7000
1982-02-09 00:00:00 UTC,2445009.500000,28.7944,-95.3222,0180,11.8000
1982-02-09 01:00:00 UTC,2445009.541667,28.7944,-95.3222,0180,11.8000
1982-02-09 02:00:00 UTC,2445009.583333,28.7944,-95.3222,0180,11.9000
1982-02-09 03:00:00 UTC,2445009.625000,28.7944,-95.3222,0180,11.9000
1982-02-09 04:00:00 UTC,2445009.666667,28.7944,-95.3222,0180,11.9000
1982-02-09 05:00:00 UTC,2445009.708333,28.7944,-95.3222,0180,11.9000
1982-02-09 06:00:00 UTC,2445009.750000,28.7944,-95.3222,0180,11.9000
1982-02-09 07:00:00 UTC,2445009.791667,28.7944,-95.3222,0180,11.9000
1982-02-09 08:00:00 UTC,2445009.833333,28.7944,-95.3222,0180,11.9000
1982-02-09 09:00:00 UTC,2445009.875000,28.7944,-95.3222,0180,11.9000
1982-02-09 10:00:00 UTC,2445009.916667,28.7944,-95.3222,0180,11.9000
1982-02-09 11:00:00 UTC,2445009.958333,28.7944,-95.3222,0180,11.9000
1982-02-09 12:00:00 UTC,2445010.000000,28.7944,-95.3222,0180,11.9000
1982-02-09 13:00:00 UTC,2445010.041667,28.7944,-95.3222,0180,11.9000
1982-02-09 14:00:00 UTC,2445010.083333,28.7944,-95.3222,0180,11.9000
1982-02-09 15:00:00 UTC,2445010.125000,28.7944,-95.3222,0180,11.9000
1982-02-09 16:00:00 UTC,2445010.166667,28.7944,-95.3222,0180,11.9000
1982-02-09 17:00:00 UTC,2445010.208333,28.7944,-95.3222,0180,11.9000
1982-02-09 18:00:00 UTC,2445010.250000,28.7944,-95.3222,0180,11.9000
1982-02-09 19:00:00 UTC,2445010.291667,28.7944,-95.3222,0180,11.9000
1982-02-09 20:00:00 UTC,2445010.333333,28.7944,-95.3222,0180,11.9000
1982-02-09 21:00:00 UTC,2445010.375000,28.7944,-95.3222,0180,11.9000
1982-02-09 22:00:00 UTC,2445010.416667,28.7944,-95.3222,0180,11.9000
1982-02-09 23:00:00 UTC,2445010.458333,28.7944,-95.3222,0180,11.9000
1982-02-10 00:00:00 UTC,2445010.500000,28.7944,-95.3222,0180,11.9000
1982-02-10 01:00:00 UTC,2445010.541667,28.7944,-95.3222,0180,11.9000
1982-02-10 02:00:00 UTC,2445010.583333,28.7944,-95.3222,0180,11.9000
1982-02-10 03:00:00 UTC,2445010.625000,28.7944,-95.3222,0180,11.9000
1982-02-10 04:00:00 UTC,2445010.666667,28.7944,-95.3222,0180,11.8000
1982-02-10 05:00:00 UTC,2445010.708333,28.7944,-95.3222,0180,11.7000
1982-02-10 06:00:00 UTC,2445010.750000,28.7944,-95.3222,0180,11.7000
1982-02-10 07:00:00 UTC,2445010.791667,28.7944,-95.3222,0180,11.7000
1982-02-10 08:00:00 UTC,2445010.833333,28.7944,-95.3222,0180,11.7000
1982-02-10 09:00:00 UTC,2445010.875000,28.7944,-95.3222,0180,11.7000
1982-02-10 10:00:00 UTC,2445010.916667,28.7944,-95.3222,0180,11.7000
1982-02-10 11:00:00 UTC,2445010.958333,28.7944,-95.3222,0180,11.7000
1982-02-10 12:00:00 UTC,2445011.000000,28.7944,-95.3222,0180,11.8000
1982-02-10 13:00:00 UTC,2445011.041667,28.7944,-95.3222,0180,11.8000
1982-02-10 14:00:00 UTC,2445011.083333,28.7944,-95.3222,0180,11.8000
1982-02-10 15:00:00 UTC,2445011.125000,28.7944,-95.3222,0180,11.9000
1982-02-10 16:00:00 UTC,2445011.166667,28.7944,-95.3222,0180,11.9000
1982-02-10 17:00:00 UTC,2445011.208333,28.7944,-95.3222,0180,11.9000
1982-02-10 18:00:00 UTC,2445011.250000,28.7944,-95.3222,0180,11.9000
1982-02-10 19:00:00 UTC,2445011.291667,28.7944,-95.3222,0180,11.9000
1982-02-10 20:00:00 UTC,2445011.333333,28.7944,-95.3222,0180,11.9000
1982-02-10 21:00:00 UTC,2445011.375000,28.7944,-95.3222,0180,11.9000
1982-02-10 22:00:00 UTC,2445011.416667,28.7944,-95.3222,0180,11.9000
1982-02-10 23:00:00 UTC,2445011.458333,28.7944,-95.3222,0180,11.9000
1982-02-11 00:00:00 UTC,2445011.500000,28.7944,-95.3222,0180,11.9000
1982-02-11 01:00:00 UTC,2445011.541667,28.7944,-95.3222,0180,11.8000
1982-02-11 02:00:00 UTC,2445011.583333,28.7944,-95.3222,0180,11.7000
1982-02-11 03:00:00 UTC,2445011.625000,28.7944,-95.3222,0180,11.7000
1982-02-11 04:00:00 UTC,2445011.666667,28.7944,-95.3222,0180,11.6000
1982-02-11 05:00:00 UTC,2445011.708333,28.7944,-95.3222,0180,11.5000
1982-02-11 06:00:00 UTC,2445011.750000,28.7944,-95.3222,0180,11.5000
1982-02-11 07:00:00 UTC,2445011.791667,28.7944,-95.3222,0180,11.5000
1982-02-11 08:00:00 UTC,2445011.833333,28.7944,-95.3222,0180,11.7000
1982-02-11 09:00:00 UTC,2445011.875000,28.7944,-95.3222,0180,11.7000
1982-02-11 10:00:00 UTC,2445011.916667,28.7944,-95.3222,0180,11.7000
1982-02-11 11:00:00 UTC,2445011.958333,28.7944,-95.3222,0180,11.8000
1982-02-11 12:00:00 UTC,2445012.000000,28.7944,-95.3222,0180,999.9999
1982-02-11 13:00:00 UTC,2445012.041667,28.7944,-95.3222,0180,999.9999
1982-02-11 14:00:00 UTC,2445012.083333,28.7944,-95.3222,0180,999.9999
1982-02-11 15:00:00 UTC,2445012.125000,28.7944,-95.3222,0180,999.9999
1982-02-11 16:00:00 UTC,2445012.166667,28.7944,-95.3222,0180,999.9999
1982-02-11 17:00:00 UTC,2445012.208333,28.7944,-95.3222,0180,999.9999
1982-02-11 18:00:00 UTC,2445012.250000,28.7944,-95.3222,0180,999.9999
1982-02-11 19:00:00 UTC,2445012.291667,28.7944,-95.3222,0180,999.9999
1982-02-11 20:00:00 UTC,2445012.333333,28.7944,-95.3222,0180,999.9999
1982-02-11 21:00:00 UTC,2445012.375000,28.7944,-95.3222,0180,999.9999
1982-02-11 22:00:00 UTC,2445012.416667,28.7944,-95.3222,0180,999.9999
1982-02-11 23:00:00 UTC,2445012.458333,28.7944,-95.3222,0180,999.9999
1982-02-12 00:00:00 UTC,2445012.500000,28.7944,-95.3222,0180,999.9999
1982-02-12 01:00:00 UTC,2445012.541667,28.7944,-95.3222,0180,999.9999
1982-02-12 02:00:00 UTC,2445012.583333,28.7944,-95.3222,0180,999.9999
1982-02-12 03:00:00 UTC,2445012.625000,28.7944,-95.3222,0180,999.9999
1982-02-12 04:00:00 UTC,2445012.666667,28.7944,-95.3222,0180,999.9999
1982-02-12 05:00:00 UTC,2445012.708333,28.7944,-95.3222,0180,999.9999
1982-02-12 06:00:00 UTC,2445012.750000,28.7944,-95.3222,0180,999.9999
1982-02-12 07:00:00 UTC,2445012.791667,28.7944,-95.3222,0180,999.9999
1982-02-12 08:00:00 UTC,2445012.833333,28.7944,-95.3222,0180,999.9999
1982-02-12 09:00:00 UTC,2445012.875000,28.7944,-95.3222,0180,999.9999
1982-02-12 10:00:00 UTC,2445012.916667,28.7944,-95.3222,0180,999.9999
1982-02-12 11:00:00 UTC,2445012.958333,28.7944,-95.3222,0180,999.9999
1982-02-12 12:00:00 UTC,2445013.000000,28.7944,-95.3222,0180,999.9999
1982-02-12 13:00:00 UTC,2445013.041667,28.7944,-95.3222,0180,999.9999
1982-02-12 14:00:00 UTC,2445013.083333,28.7944,-95.3222,0180,999.9999
1982-02-12 15:00:00 UTC,2445013.125000,28.7944,-95.3222,0180,999.9999
1982-02-12 16:00:00 UTC,2445013.166667,28.7944,-95.3222,0180,999.9999
1982-02-12 17:00:00 UTC,2445013.208333,28.7944,-95.3222,0180,999.9999
1982-02-12 18:00:00 UTC,2445013.250000,28.7944,-95.3222,0180,999.9999
1982-02-12 19:00:00 UTC,2445013.291667,28.7944,-95.3222,0180,999.9999
1982-02-12 20:00:00 UTC,2445013.333333,28.7944,-95.3222,0180,999.9999
1982-02-12 21:00:00 UTC,2445013.375000,28.7944,-95.3222,0180,999.9999
1982-02-12 22:00:00 UTC,2445013.416667,28.7944,-95.3222,0180,999.9999
1982-02-12 23:00:00 UTC,2445013.458333,28.7944,-95.3222,0180,999.9999
1982-02-13 00:00:00 UTC,2445013.500000,28.7944,-95.3222,0180,999.9999
1982-02-13 01:00:00 UTC,2445013.541667,28.7944,-95.3222,0180,999.9999
1982-02-13 02:00:00 UTC,2445013.583333,28.7944,-95.3222,0180,999.9999
1982-02-13 03:00:00 UTC,2445013.625000,28.7944,-95.3222,0180,999.9999
1982-02-13 04:00:00 UTC,2445013.666667,28.7944,-95.3222,0180,999.9999
1982-02-13 05:00:00 UTC,2445013.708333,28.7944,-95.3222,0180,999.9999
1982-02-13 06:00:00 UTC,2445013.750000,28.7944,-95.3222,0180,999.9999
1982-02-13 07:00:00 UTC,2445013.791667,28.7944,-95.3222,0180,999.9999
1982-02-13 08:00:00 UTC,2445013.833333,28.7944,-95.3222,0180,999.9999
1982-02-13 09:00:00 UTC,2445013.875000,28.7944,-95.3222,0180,999.9999
1982-02-13 10:00:00 UTC,2445013.916667,28.7944,-95.3222,0180,999.9999
1982-02-13 11:00:00 UTC,2445013.958333,28.7944,-95.3222,0180,999.9999
1982-02-13 12:00:00 UTC,2445014.000000,28.7944,-95.3222,0180,999.9999
1982-02-13 13:00:00 UTC,2445014.041667,28.7944,-95.3222,0180,999.9999
1982-02-13 14:00:00 UTC,2445014.083333,28.7944,-95.3222,0180,999.9999
1982-02-13 15:00:00 UTC,2445014.125000,28.7944,-95.3222,0180,999.9999
1982-02-13 16:00:00 UTC,2445014.166667,28.7944,-95.3222,0180,999.9999
1982-02-13 17:00:00 UTC,2445014.208333,28.7944,-95.3222,0180,999.9999
1982-02-13 18:00:00 UTC,2445014.250000,28.7944,-95.3222,0180,999.9999
1982-02-13 19:00:00 UTC,2445014.291667,28.7944,-95.3222,0180,999.9999
1982-02-13 20:00:00 UTC,2445014.333333,28.7944,-95.3222,0180,999.9999
1982-02-13 21:00:00 UTC,2445014.375000,28.7944,-95.3222,0180,999.9999
1982-02-13 22:00:00 UTC,2445014.416667,28.7944,-95.3222,0180,999.9999
1982-02-13 23:00:00 UTC,2445014.458333,28.7944,-95.3222,0180,999.9999
1982-02-14 00:00:00 UTC,2445014.500000,28.7944,-95.3222,0180,999.9999
1982-02-14 01:00:00 UTC,2445014.541667,28.7944,-95.3222,0180,999.9999
1982-02-14 02:00:00 UTC,2445014.583333,28.7944,-95.3222,0180,999.9999
1982-02-14 03:00:00 UTC,2445014.625000,28.7944,-95.3222,0180,999.9999
1982-02-14 04:00:00 UTC,2445014.666667,28.7944,-95.3222,0180,999.9999
1982-02-14 05:00:00 UTC,2445014.708333,28.7944,-95.3222,0180,999.9999
1982-02-14 06:00:00 UTC,2445014.750000,28.7944,-95.3222,0180,999.9999
1982-02-14 07:00:00 UTC,2445014.791667,28.7944,-95.3222,0180,999.9999
1982-02-14 08:00:00 UTC,2445014.833333,28.7944,-95.3222,0180,999.9999
1982-02-14 09:00:00 UTC,2445014.875000,28.7944,-95.3222,0180,999.9999
1982-02-14 10:00:00 UTC,2445014.916667,28.7944,-95.3222,0180,999.9999
1982-02-14 11:00:00 UTC,2445014.958333,28.7944,-95.3222,0180,999.9999
1982-02-14 12:00:00 UTC,2445015.000000,28.7944,-95.3222,0180,999.9999
1982-02-14 13:00:00 UTC,2445015.041667,28.7944,-95.3222,0180,999.9999
1982-02-14 14:00:00 UTC,2445015.083333,28.7944,-95.3222,0180,999.9999
1982-02-14 15:00:00 UTC,2445015.125000,28.7944,-95.3222,0180,999.9999
1982-02-14 16:00:00 UTC,2445015.166667,28.7944,-95.3222,0180,999.9999
1982-02-14 17:00:00 UTC,2445015.208333,28.7944,-95.3222,0180,999.9999
1982-02-14 18:00:00 UTC,2445015.250000,28.7944,-95.3222,0180,999.9999
1982-02-14 19:00:00 UTC,2445015.291667,28.7944,-95.3222,0180,999.9999
1982-02-14 20:00:00 UTC,2445015.333333,28.7944,-95.3222,0180,999.9999
1982-02-14 21:00:00 UTC,2445015.375000,28.7944,-95.3222,0180,999.9999
1982-02-14 22:00:00 UTC,2445015.416667,28.7944,-95.3222,0180,999.9999
1982-02-14 23:00:00 UTC,2445015.458333,28.7944,-95.3222,0180,999.9999
1982-02-15 00:00:00 UTC,2445015.500000,28.7944,-95.3222,0180,999.9999
1982-02-15 01:00:00 UTC,2445015.541667,28.7944,-95.3222,0180,999.9999
1982-02-15 02:00:00 UTC,2445015.583333,28.7944,-95.3222,0180,999.9999
1982-02-15 03:00:00 UTC,2445015.625000,28.7944,-95.3222,0180,999.9999
1982-02-15 04:00:00 UTC,2445015.666667,28.7944,-95.3222,0180,999.9999
1982-02-15 05:00:00 UTC,2445015.708333,28.7944,-95.3222,0180,999.9999
1982-02-15 06:00:00 UTC,2445015.750000,28.7944,-95.3222,0180,999.9999
1982-02-15 07:00:00 UTC,2445015.791667,28.7944,-95.3222,0180,999.9999